Home > Weather > Market Harborough > Past weeks

Flag for United Kingdom Past Weather in Market Harborough, England, United Kingdom — Yesterday and Last 2 Weeks

Now
72 °F

Mild.


Feels Like: 77 °F
Forecast: 51 / 67 °F
Wind: 10 mph from Northwest

Location: Church Lawford

Current Time: Jul 27, 2016 at 6:23:08 PM

Latest Report: Jul 27, 2016 at 5:00 PM


Visibility: 28 mi

Pressure: 29.96 "Hg

Humidity: 52%

Dew Point: 53 °F

Location of Market HarboroughLocation

Past Weather in Market Harborough — Graph

°F

Market Harborough Temperature Yesterday

Maximum temperature yesterday: 69 °F (at 3:00 PM)
Minimum temperature yesterday: 52 °F (at 4:00 AM)
Average temperature yesterday: 62 °F

High & Low Weather Summary for the Past Weeks

 TemperatureHumidityPressure
High89 °F (Jul 19, 4:00 PM)100% (Jul 23, 5:00 AM)30.32 "Hg (Jul 23, 5:00 AM)
Low47 °F (Jul 13, 5:00 AM)42% (Jul 20, 4:00 PM)29.68 "Hg (Jul 20, 9:00 AM)
Average65 °F76%30.08 "Hg
* Reported Jul 12 5:00 PM — Jul 27 5:00 PM, Market Harborough, Weather by CustomWeather, © 2016

Note: Actual official high and low records may vary slightly from our data, if they occured in-between our weather recording intervals... More about our weather records

Advertising

Market Harborough Weather History for the Previous 24 Hours

Scroll right to see more
 ConditionsComfort  
Time TempWeatherWind HumidityBarometerVisibility
5:00 PM
Wed, Jul 27
72 °FMild.10 mph52%29.96 "Hg28 mi
4:00 PM72 °FMild.10 mph57%29.97 "Hg19 mi
3:00 PM70 °FMild.6 mph63%29.97 "Hg19 mi
2:00 PM69 °FMild.8 mph69%29.97 "Hg28 mi
1:00 PM66 °FMild.10 mph77%29.97 "Hg28 mi
12:00 PM64 °FLots of rain. Cloudy.8 mph88%29.96 "Hg7 mi
11:00 AM65 °FMild.7 mph93%29.94 "Hg6 mi
10:00 AM64 °FMild.6 mph95%29.93 "Hg12 mi
9:00 AM62 °FRain. Cloudy.7 mph97%29.93 "Hg7 mi
7:00 AM61 °FCool.7 mph95%29.92 "Hg15 mi
6:00 AM61 °FCool.6 mph96%29.93 "Hg12 mi
5:00 AM60 °FLight rain. Overcast.6 mph96%29.93 "Hg6 mi
4:00 AM61 °FLight rain. Overcast.6 mph95%29.96 "Hg11 mi
3:00 AM61 °FDrizzle. Overcast.7 mph91%29.97 "Hg11 mi
2:00 AM62 °FLight rain. Overcast.6 mph87%30.00 "Hg22 mi
1:00 AM62 °FCool.5 mph85%30.02 "Hg28 mi
12:00 AM62 °FCool.3 mph83%30.04 "Hg22 mi
9:00 PM
Tue, Jul 26
64 °FMild.6 mph74%30.07 "Hg28 mi
8:00 PM66 °FMild.7 mph69%30.07 "Hg22 mi
7:00 PM67 °FMild.6 mph64%30.08 "Hg25 mi
6:00 PM67 °FMild.8 mph61%30.09 "Hg22 mi
Weather by CustomWeather, © 2016

See weather overviewHow to use our weather pages